[[{"header":{"parameterUnit":"m.s-1","parameterCategory":1,"la1":30.2991,"la2":30.254,"lo1":-89.0895,"lo2":-89.0444,"dy":0.0017,"dx":0.0017,"nx":28,"ny":28,"refTime":"2023-11-13T03:00:00:Z","depth":0,"parameterNumber":2,"parameterNumberName":"U-component_of_WINDS"},"data":[0,0,0,0,0,0,0,0,0,0,0,0,0,0,0,0,0,0,0,0,0,0,0,0,0,0,0,0,0,0,0,0,0,0,0,0,0,0,0,0,0,0,0,0,0,0,0,0,0,0,0,0,0,0,0,0,0,0,-6.9282,-6.9283,0,-6.9318,-6.9319,-6.9319,-6.9124,-6.9118,-6.9113,-6.9107,-6.9145,-6.9151,-6.9157,0,0,0,0,0,0,0,0,0,0,0,0,0,-6.9046,-6.9051,-6.9282,-6.9283,-6.9283,-6.9318,-6.9319,-6.9319,-6.9125,-6.9118,-6.9111,-6.9105,-6.9143,-6.9151,-6.9158,0,0,0,0,0,0,0,0,0,0,0,0,0,-6.9122,-6.9053,-6.9282,-6.9191,-6.9183,-6.9318,-6.9319,-6.9319,-6.9126,-6.9118,-6.911,-6.9102,-6.9141,-6.915,-6.9159,-6.9385,0,0,-6.9188,-6.9192,0,0,0,0,0,0,0,0,-6.9118,-6.9131,-6.9204,-6.9197,-6.9189,-6.9208,-6.9249,-6.9341,-6.9129,-6.9148,-6.9107,-6.9098,-6.9173,-6.9179,-6.9204,-6.9387,-6.9388,-6.9188,-6.9194,-6.9198,-6.9201,0,0,0,0,0,0,0,-6.9113,-6.9128,-6.9297,-6.9205,-6.9196,-6.9148,-6.9149,-6.9266,-6.9207,-6.9145,-6.9131,-6.9138,-6.9167,-6.9196,-6.9204,-6.9389,-6.9188,-6.9196,-6.9202,-6.9206,-6.9758,-6.9767,0,0,0,0,0,0,-6.912,-6.9125,-6.9295,-6.9298,-6.9132,-6.9159,-6.916,-6.921,-6.9205,-6.9196,-6.9145,-6.9129,-6.9184,-6.9193,-6.9204,-6.9468,-6.9198,-6.9207,-6.9212,-6.9749,-6.976,-6.977,0,0,0,0,0,0,-6.9115,-6.9137,-6.9294,-6.9208,-6.9224,-6.9172,-6.9229,-6.9215,-6.9244,-6.9205,-6.9194,-6.9185,-6.9178,-6.9191,-6.9341,-6.9467,-6.9211,-6.9219,-6.9738,-6.9752,-6.9765,-6.9999,0,0,0,0,0,0,-6.9109,-6.9136,-6.9222,-6.9211,-6.9229,-6.9431,-6.9237,-6.9222,-6.926,-6.9239,-6.924,-6.9232,-6.9172,-6.9329,-6.9351,-6.9475,-6.9227,-6.9727,-6.9745,-6.9761,-6.998,-7.0019,-7.0052,0,0,0,0,0,-6.9102,-6.9286,-6.9227,-6.9249,-6.9335,-6.9439,-6.9449,-6.9377,-6.9271,-6.9356,-6.9332,-6.9232,-6.945,-6.9346,-6.9369,-6.9498,-6.9719,-6.974,-6.9759,-6.9963,-7.0011,-7.0051,0,0,0,0,0,0,-6.9313,-6.9283,-6.9217,-6.9404,-6.9425,-6.9405,-6.9511,-6.9429,-6.9481,-6.946,-6.9367,-6.9369,-6.9535,-6.9531,-6.9416,-6.9716,-6.9566,-6.9592,-6.9713,-6.9758,-6.9794,-6.9791,-6.9234,0,0,0,0,0,-6.9381,-6.9468,-6.9437,-6.9605,-6.9619,-6.9564,-6.9606,-6.9549,-6.9567,-6.9575,-6.9561,-6.9584,-6.9657,-6.9707,-6.9772,-6.9978,-6.9975,-7.0079,-7.0115,-7.0145,-7.0169,-7.0277,-7.0323,-6.9837,-6.9837,-6.9836,0,0,-6.9524,-6.9518,-6.9578,-6.9647,-6.9657,-6.9749,-6.9573,-6.9677,-6.9745,-6.9591,-6.9732,-6.9723,-6.9741,-6.9921,-6.9999,-6.9923,-7.0302,-7.0171,-7.0195,-7.0202,-7.0303,-7.0349,-7.039,-6.9851,-6.9848,-6.9846,0,0,-6.9829,-6.9834,-6.9974,-6.9988,-7.0005,-6.9967,-7.0001,-6.9994,-6.9982,-7.0122,-7.0008,-7.0087,-7.0215,-7.0233,-7.0259,-7.0573,-7.0483,-7.0597,-7.0787,-7.0894,-7.0932,-7.0966,-7.1078,-7.1119,-7.062,-7.0621,-7.0622,0,-7.0004,-7.0138,-7.0057,-7.0169,-7.0203,-7.0068,-7.0209,-7.0226,-7.0265,-7.0291,-7.0205,-7.0363,-7.0366,-7.0548,-7.0625,-7.065,-7.0686,-7.0596,-7.0933,-7.0966,-7.0996,-7.1102,-7.1144,-7.0635,-7.0633,-7.0632,-7.0631,0,-7.0352,-7.0447,-7.0558,-7.0598,-7.0644,-7.0771,-7.0709,-7.0766,-7.0704,-7.0676,-7.082,-7.0819,-7.0882,-7.092,-7.0861,-7.1095,-7.1046,-7.0949,-7.0795,-7.1057,-7.1155,-7.1195,-7.0655,-7.065,-7.0645,-7.0642,0,0,-7.0792,-7.0786,-7.0828,-7.0844,-7.0854,-7.0925,-7.1046,-7.1107,-7.1158,-7.1189,-7.1288,-7.14,-7.1309,-7.1339,-7.1281,-7.1375,-7.1624,-7.1265,-7.1264,-7.1332,-7.1881,-7.1955,-7.2003,-7.1564,-7.1572,-7.1578,-7.1879,0,-7.1091,-7.1297,-7.1227,-7.1437,-7.1523,-7.1396,-7.1501,-7.1519,-7.1496,-7.1566,-7.1539,-7.162,-7.1494,-7.1512,-7.1599,-7.1575,-7.1733,-7.1552,-7.1656,-7.1661,-7.1656,-7.2054,-7.2133,-7.2418,-7.1917,-7.1924,-7.1928,0,-7.1468,-7.1514,-7.1733,-7.1727,-7.1761,-7.1857,-7.1907,-7.1976,-7.1993,-7.1969,-7.2004,-7.1925,-7.2043,-7.1891,-7.2052,-7.1931,-7.1969,-7.1964,-7.1973,-7.198,-7.1811,-7.2073,-7.2507,-7.255,-7.1988,-7.1983,-7.1979,0,-7.1768,-7.1885,-7.203,-7.2048,-7.2045,-7.2116,-7.2118,-7.2126,-7.2168,-7.2212,-7.2238,-7.2296,-7.2329,-7.2375,-7.2315,-7.2209,-7.2487,-7.2328,-7.247,-7.2473,-7.2535,-7.2532,-7.2982,-7.256,-7.2559,-7.2558,-7.2557,0,-7.211,-7.2248,-7.2164,-7.2254,-7.2406,-7.2324,-7.2477,-7.2464,-7.2474,-7.2559,-7.2453,-7.2535,-7.245,-7.2525,-7.2479,-7.262,-7.2635,-7.262,-7.2606,-7.263,-7.2632,-7.2653,-7.2632,-7.2569,-7.2567,-7.2565,-7.2563,0,-7.247,-7.242,-7.257,-7.2555,-7.2554,-7.2667,-7.2654,-7.2736,-7.2705,-7.2815,-7.2836,-7.2788,-7.287,-7.2815,-7.2897,-7.2866,-7.3052,-7.301,-7.3046,-7.3035,-7.318,-7.3168,-7.366,-7.3721,-7.326,-7.3265,-7.3269,0,-7.2692,-7.2795,-7.2792,-7.2841,-7.285,-7.2931,-7.2973,-7.2897,-7.2945,-7.2972,-7.3052,-7.3125,-7.318,-7.3317,-7.329,-7.3353,-7.3312,-7.3481,-7.3321,-7.3342,-7.3315,-7.331,-7.332,-7.3513,-7.3518,-7.3523,-7.3526,0,-7.3091,-7.3061,-7.3124,-7.3181,-7.3234,-7.3274,-7.3306,-7.3353,-7.3276,-7.3335,-7.3418,-7.3461,-7.3545,-7.362,-7.3672,-7.3674,-7.3589,-7.3577,-7.3613,-7.3638,-7.3655,-7.3648,-7.3134,-7.3566,-7.3562,-7.3559,-7.3557,-7.3555,-7.3388,-7.3474,-7.3486,-7.3561,-7.3577,-7.3609,-7.3686,-7.3665,-7.3732,-7.3795,-7.3746,-7.3845,-7.386,-7.3921,-7.3934,-7.4011,-7.3942,-7.3995,-7.4008,-7.4022,-7.4043,-7.3643,-7.402,-7.4019,-7.4017,-7.4016,-7.4016,0,-7.3782,-7.3782,-7.3852,-7.39,-7.396,-7.3874,-7.3904,-7.396,-7.4048,-7.4069,-7.4125,-7.4221,-7.4292,-7.4271,-7.4335,-7.4401,-7.4363,-7.442,-7.4414,-7.4417,-7.41,-7.4062,-7.4449,-7.4449,-7.4449,-7.4449,-7.4449,-7.4449,-7.3993,-7.4135,-7.4106,-7.4255,-7.4254,-7.435,-7.4375,-7.4405,-7.4421,-7.4532,-7.4591,-7.4577,-7.4581,-7.4644,-7.4706,-7.4698,-7.4727,-7.4799,-7.4777,-7.4481,-7.4439,-7.4398,-7.4362,-7.4805,-7.4806,-7.5086,-7.5089,-7.5091]},{"header":{"parameterUnit":"m.s-1","parameterCategory":1,"la1":30.2991,"la2":30.254,"lo1":-89.0895,"lo2":-89.0444,"dy":0.0017,"dx":0.0017,"nx":28,"ny":28,"refTime":"2023-11-13T03:00:00:Z","depth":0,"parameterNumber":3,"parameterNumberName":"V-component_of_WINDS"},"data":[0,0,0,0,0,0,0,0,0,0,0,0,0,0,0,0,0,0,0,0,0,0,0,0,0,0,0,0,0,0,0,0,0,0,0,0,0,0,0,0,0,0,0,0,0,0,0,0,0,0,0,0,0,0,0,0,0,0,-1.9855,-1.9855,0,-1.9862,-1.9862,-1.9863,-1.9864,-1.9864,-1.9863,-1.9863,-1.987,-1.987,-1.987,0,0,0,0,0,0,0,0,0,0,0,0,0,-1.9839,-1.9839,-1.9855,-1.9855,-1.9855,-1.9862,-1.9862,-1.9863,-1.9864,-1.9864,-1.9863,-1.9863,-1.987,-1.987,-1.987,0,0,0,0,0,0,0,0,0,0,0,0,0,-1.9846,-1.9839,-1.9855,-1.9857,-1.9857,-1.9862,-1.9862,-1.9863,-1.9864,-1.9864,-1.9863,-1.9863,-1.987,-1.987,-1.987,-1.9874,0,0,-1.9871,-1.9871,0,0,0,0,0,0,0,0,-1.9845,-1.9846,-1.9856,-1.9856,-1.9857,-1.9862,-1.9859,-1.9866,-1.9864,-1.9861,-1.9863,-1.9863,-1.9867,-1.9868,-1.9869,-1.9875,-1.9875,-1.9871,-1.9872,-1.9872,-1.9872,0,0,0,0,0,0,0,-1.9845,-1.9846,-1.9858,-1.9856,-1.9857,-1.9856,-1.9857,-1.986,-1.9864,-1.9861,-1.9861,-1.9862,-1.9867,-1.9869,-1.9869,-1.9875,-1.9871,-1.9872,-1.9872,-1.9872,-1.9881,-1.9881,0,0,0,0,0,0,-1.9844,-1.9846,-1.9858,-1.9858,-1.9851,-1.9856,-1.9857,-1.986,-1.9864,-1.9865,-1.9862,-1.9862,-1.9868,-1.9869,-1.987,-1.9873,-1.9872,-1.9872,-1.9872,-1.9881,-1.9881,-1.9881,0,0,0,0,0,0,-1.9844,-1.9846,-1.9857,-1.9852,-1.9853,-1.9857,-1.986,-1.9861,-1.9862,-1.9865,-1.9866,-1.9863,-1.9868,-1.9869,-1.9873,-1.9873,-1.9872,-1.9873,-1.9881,-1.9881,-1.9881,-1.9881,0,0,0,0,0,0,-1.9844,-1.9845,-1.9848,-1.9852,-1.9854,-1.9861,-1.986,-1.9861,-1.9863,-1.9863,-1.9867,-1.9867,-1.9868,-1.9872,-1.9873,-1.9874,-1.9873,-1.9881,-1.9881,-1.9881,-1.9881,-1.9881,-1.9881,0,0,0,0,0,-1.9843,-1.9848,-1.9848,-1.985,-1.9857,-1.9861,-1.9862,-1.9864,-1.9863,-1.9865,-1.9866,-1.9867,-1.9873,-1.9872,-1.9873,-1.9874,-1.9881,-1.9881,-1.9881,-1.9881,-1.9881,-1.9881,0,0,0,0,0,0,-1.9845,-1.9849,-1.9849,-1.9856,-1.9858,-1.9862,-1.9864,-1.9864,-1.9867,-1.9867,-1.9868,-1.9869,-1.9872,-1.9874,-1.9873,-1.9877,-1.9877,-1.9877,-1.9876,-1.9876,-1.9876,-1.9876,-1.9873,0,0,0,0,0,-1.9845,-1.9849,-1.9853,-1.9858,-1.9859,-1.9861,-1.9863,-1.9864,-1.9867,-1.9868,-1.987,-1.9871,-1.9873,-1.9875,-1.9877,-1.9881,-1.9881,-1.9882,-1.9882,-1.9882,-1.9882,-1.9882,-1.9882,-1.9881,-1.9881,-1.9881,0,0,-1.9848,-1.9851,-1.9853,-1.9858,-1.986,-1.9863,-1.9862,-1.9866,-1.9867,-1.9868,-1.9871,-1.9872,-1.9874,-1.9877,-1.9879,-1.9879,-1.9882,-1.9882,-1.9882,-1.9882,-1.9882,-1.9882,-1.9882,-1.9881,-1.9881,-1.9881,0,0,-1.9853,-1.9857,-1.986,-1.9862,-1.9865,-1.9866,-1.9866,-1.9869,-1.987,-1.9873,-1.9873,-1.9874,-1.9878,-1.9879,-1.988,-1.9882,-1.9882,-1.9883,-1.9883,-1.9883,-1.9883,-1.9883,-1.9882,-1.9882,-1.9883,-1.9883,-1.9883,0,-1.9856,-1.9861,-1.9862,-1.9865,-1.9866,-1.9866,-1.9869,-1.9871,-1.9874,-1.9874,-1.9874,-1.9877,-1.9879,-1.9881,-1.9881,-1.9882,-1.9882,-1.9883,-1.9883,-1.9883,-1.9883,-1.9882,-1.9882,-1.9883,-1.9883,-1.9883,-1.9883,0,-1.9863,-1.9866,-1.9869,-1.9871,-1.9873,-1.9876,-1.9876,-1.9877,-1.9877,-1.9877,-1.9879,-1.988,-1.9882,-1.9882,-1.9883,-1.9883,-1.9883,-1.9883,-1.9883,-1.9883,-1.9882,-1.9882,-1.9883,-1.9883,-1.9883,-1.9883,0,0,-1.9872,-1.9873,-1.9874,-1.9874,-1.9876,-1.9878,-1.9879,-1.988,-1.9881,-1.9882,-1.9882,-1.9884,-1.9883,-1.9884,-1.9884,-1.9884,-1.9884,-1.9884,-1.9884,-1.9883,-1.9882,-1.9882,-1.9882,-1.9883,-1.9883,-1.9883,-1.9882,0,-1.9877,-1.9881,-1.9881,-1.9884,-1.9885,-1.9884,-1.9885,-1.9885,-1.9885,-1.9885,-1.9884,-1.9885,-1.9885,-1.9885,-1.9884,-1.9884,-1.9883,-1.9884,-1.9882,-1.9882,-1.9882,-1.9882,-1.9883,-1.9882,-1.9882,-1.9882,-1.9882,0,-1.9884,-1.9885,-1.9888,-1.9887,-1.9888,-1.9889,-1.9888,-1.9889,-1.9888,-1.9888,-1.9888,-1.9887,-1.9887,-1.9886,-1.9885,-1.9885,-1.9884,-1.9883,-1.9883,-1.9883,-1.9882,-1.9881,-1.9882,-1.9881,-1.9882,-1.9882,-1.9882,0,-1.9889,-1.9891,-1.9892,-1.9892,-1.9892,-1.9892,-1.9891,-1.9891,-1.989,-1.9889,-1.9889,-1.9888,-1.9888,-1.9886,-1.9885,-1.9885,-1.9883,-1.9883,-1.9882,-1.9882,-1.9882,-1.9882,-1.9881,-1.9882,-1.9882,-1.9882,-1.9882,0,-1.9895,-1.9896,-1.9894,-1.9895,-1.9896,-1.9894,-1.9895,-1.9894,-1.9893,-1.9892,-1.989,-1.989,-1.9888,-1.9886,-1.9885,-1.9883,-1.9883,-1.9882,-1.9881,-1.9882,-1.9882,-1.9881,-1.9881,-1.9882,-1.9882,-1.9882,-1.9882,0,-1.9901,-1.9899,-1.99,-1.9899,-1.9898,-1.9899,-1.9896,-1.9896,-1.9895,-1.9894,-1.9894,-1.9891,-1.9889,-1.9887,-1.9885,-1.9883,-1.9881,-1.9881,-1.9882,-1.9881,-1.988,-1.988,-1.9879,-1.9878,-1.988,-1.988,-1.988,0,-1.9905,-1.9906,-1.9903,-1.9903,-1.9902,-1.9901,-1.9901,-1.9898,-1.9897,-1.9895,-1.9894,-1.9892,-1.989,-1.9887,-1.9884,-1.9882,-1.9881,-1.988,-1.9881,-1.988,-1.988,-1.9879,-1.9879,-1.9881,-1.9881,-1.9881,-1.9881,0,-1.9911,-1.9909,-1.9909,-1.9907,-1.9906,-1.9904,-1.9903,-1.9902,-1.9899,-1.9898,-1.9895,-1.9894,-1.989,-1.9887,-1.9884,-1.9882,-1.988,-1.988,-1.988,-1.988,-1.988,-1.9879,-1.9881,-1.9881,-1.9881,-1.9881,-1.9881,-1.9881,-1.9915,-1.9915,-1.9913,-1.9911,-1.9909,-1.9907,-1.9906,-1.9904,-1.9902,-1.9899,-1.9897,-1.9894,-1.989,-1.9886,-1.9883,-1.988,-1.988,-1.988,-1.9879,-1.9879,-1.9879,-1.9881,-1.988,-1.988,-1.988,-1.988,-1.988,0,-1.9921,-1.9918,-1.9917,-1.9914,-1.9912,-1.991,-1.9907,-1.9905,-1.9903,-1.99,-1.9897,-1.9893,-1.989,-1.9886,-1.9882,-1.988,-1.9879,-1.9879,-1.9879,-1.9878,-1.988,-1.988,-1.988,-1.988,-1.988,-1.988,-1.988,-1.988,-1.9923,-1.9922,-1.992,-1.9917,-1.9914,-1.9912,-1.991,-1.9907,-1.9904,-1.99,-1.9897,-1.9894,-1.989,-1.9885,-1.9881,-1.988,-1.9878,-1.9878,-1.9876,-1.9878,-1.9878,-1.9878,-1.9879,-1.9878,-1.9878,-1.9875,-1.9875,-1.9875]}]]